Time,TemperatureF,DewpointF,PressureIn,WindDirection,WindDirectionDegrees,WindSpeedMPH,WindSpeedGustMPH,Humidity,HourlyPrecipIn,Conditions,Clouds,dailyrainin,SolarRadiationWatts/m^2,SoftwareType,DateUTC
2013-10-28 00:00:00,50.5,31.0,29.72,SW,215,8.0,14.0,47,0.00,,---,0.00,0.00,VWS V14.01,2013-10-28 05:00:00,
2013-10-28 00:05:00,50.4,31.5,29.72,SSW,195,11.0,12.0,48,0.00,,---,0.00,0.00,VWS V14.01,2013-10-28 05:05:00,
2013-10-28 00:10:00,50.1,31.2,29.72,SSW,203,7.0,14.0,48,0.00,,---,0.00,0.00,VWS V14.01,2013-10-28 05:10:00,
2013-10-28 00:15:00,49.9,31.0,29.71,SSW,196,11.0,13.0,48,0.00,,---,0.00,0.00,VWS V14.01,2013-10-28 05:15:00,
2013-10-28 00:20:00,49.9,31.0,29.71,NW,316,13.0,14.0,48,0.00,,---,0.00,0.00,VWS V14.01,2013-10-28 05:20:00,
2013-10-28 00:25:00,49.9,31.0,29.71,NNW,346,8.0,13.0,48,0.00,,---,0.00,0.00,VWS V14.01,2013-10-28 05:25:00,
2013-10-28 00:30:00,49.8,31.4,29.71,SW,236,11.0,12.0,49,0.00,,---,0.00,0.00,VWS V14.01,2013-10-28 05:30:00,
2013-10-28 00:35:00,49.5,31.6,29.71,South,171,6.0,11.0,50,0.00,,---,0.00,0.00,VWS V14.01,2013-10-28 05:35:00,
2013-10-28 00:40:00,49.2,31.4,29.71,WNW,282,7.0,11.0,50,0.00,,---,0.00,0.00,VWS V14.01,2013-10-28 05:40:00,
2013-10-28 00:45:00,49.1,31.8,29.72,SW,222,7.0,10.0,51,0.00,,---,0.00,0.00,VWS V14.01,2013-10-28 05:45:00,
2013-10-28 00:50:00,48.8,31.5,29.72,South,174,7.0,8.0,51,0.00,,---,0.00,0.00,VWS V14.01,2013-10-28 05:50:00,
2013-10-28 00:55:00,48.3,31.5,29.72,SSE,164,6.0,7.0,52,0.00,,---,0.00,0.00,VWS V14.01,2013-10-28 05:55:00,
2013-10-28 01:00:00,47.9,31.1,29.73,SSE,162,5.0,6.0,52,0.00,,---,0.00,0.00,VWS V14.01,2013-10-28 06:00:00,
2013-10-28 01:05:00,47.6,30.9,29.73,SSE,165,3.0,3.0,52,0.00,,---,0.00,0.00,VWS V14.01,2013-10-28 06:05:00,
2013-10-28 01:10:00,47.4,31.1,29.73,South,189,4.0,4.0,53,0.00,,---,0.00,0.00,VWS V14.01,2013-10-28 06:10:00,
2013-10-28 01:15:00,47.3,31.0,29.72,North,354,6.0,6.0,53,0.00,,---,0.00,0.00,VWS V14.01,2013-10-28 06:15:00,
2013-10-28 01:20:00,47.4,31.1,29.72,NNW,343,5.0,8.0,53,0.00,,---,0.00,0.00,VWS V14.01,2013-10-28 06:20:00,
2013-10-28 01:25:00,47.3,31.0,29.72,North,350,6.0,6.0,53,0.00,,---,0.00,0.00,VWS V14.01,2013-10-28 06:25:00,
2013-10-28 01:31:00,47.3,31.5,29.72,WSW,244,7.0,8.0,54,0.00,,---,0.00,0.00,VWS V14.01,2013-10-28 06:31:00,
2013-10-28 01:36:00,47.1,31.3,29.72,SSW,200,3.0,7.0,54,0.00,,---,0.00,0.00,VWS V14.01,2013-10-28 06:36:00,
2013-10-28 01:41:00,47.1,31.8,29.72,WNW,287,5.0,6.0,55,0.00,,---,0.00,0.00,VWS V14.01,2013-10-28 06:41:00,
2013-10-28 01:46:00,47.0,31.7,29.72,SW,215,5.0,7.0,55,0.00,,---,0.00,0.00,VWS V14.01,2013-10-28 06:46:00,
2013-10-28 01:51:00,46.8,31.5,29.72,North,0,6.0,7.0,55,0.00,,---,0.00,0.00,VWS V14.01,2013-10-28 06:51:00,
2013-10-28 01:56:00,46.8,31.5,29.72,NNW,342,6.0,8.0,55,0.00,,---,0.00,0.00,VWS V14.01,2013-10-28 06:56:00,
2013-10-28 02:01:00,47.0,31.7,29.72,SSW,205,5.0,5.0,55,0.00,,---,0.00,0.00,VWS V14.01,2013-10-28 07:01:00,
2013-10-28 02:06:00,47.1,31.8,29.72,NNW,339,7.0,9.0,55,0.00,,---,0.00,0.00,VWS V14.01,2013-10-28 07:06:00,
2013-10-28 02:11:00,47.1,32.2,29.72,WNW,284,7.0,10.0,56,0.00,,---,0.00,0.00,VWS V14.01,2013-10-28 07:11:00,
2013-10-28 02:16:00,46.8,32.4,29.72,SSW,195,8.0,12.0,57,0.00,,---,0.00,0.00,VWS V14.01,2013-10-28 07:16:00,
2013-10-28 02:21:00,46.8,32.4,29.72,WSW,237,10.0,12.0,57,0.00,,---,0.00,0.00,VWS V14.01,2013-10-28 07:21:00,
2013-10-28 02:26:00,47.6,33.1,29.72,SW,233,11.0,13.0,57,0.00,,---,0.00,0.00,VWS V14.01,2013-10-28 07:26:00,
2013-10-28 02:31:00,48.5,33.5,29.72,SSW,212,13.0,14.0,56,0.00,,---,0.00,0.00,VWS V14.01,2013-10-28 07:31:00,
2013-10-28 02:36:00,48.6,33.6,29.72,SSW,198,11.0,13.0,56,0.00,,---,0.00,0.00,VWS V14.01,2013-10-28 07:36:00,
2013-10-28 02:41:00,48.8,33.8,29.72,SSW,196,12.0,12.0,56,0.00,,---,0.00,0.00,VWS V14.01,2013-10-28 07:41:00,
2013-10-28 02:46:00,48.8,33.8,29.72,SW,222,8.0,12.0,56,0.00,,---,0.00,0.00,VWS V14.01,2013-10-28 07:46:00,
2013-10-28 02:51:00,48.9,33.9,29.72,South,175,11.0,13.0,56,0.00,,---,0.00,0.00,VWS V14.01,2013-10-28 07:51:00,
2013-10-28 02:57:00,48.8,34.3,29.72,SW,226,11.0,11.0,57,0.00,,---,0.00,0.00,VWS V14.01,2013-10-28 07:57:00,
2013-10-28 03:02:00,48.5,34.0,29.72,WSW,251,10.0,11.0,57,0.00,,---,0.00,0.00,VWS V14.01,2013-10-28 08:02:00,
2013-10-28 03:07:00,48.5,34.0,29.72,SW,219,8.0,10.0,57,0.00,,---,0.00,0.00,VWS V14.01,2013-10-28 08:07:00,
2013-10-28 03:12:00,48.5,34.0,29.72,SE,124,6.0,12.0,57,0.00,,---,0.00,0.00,VWS V14.01,2013-10-28 08:12:00,
2013-10-28 03:17:00,48.5,34.0,29.72,SSE,164,6.0,11.0,57,0.00,,---,0.00,0.00,VWS V14.01,2013-10-28 08:17:00,
2013-10-28 03:22:00,48.2,34.1,29.72,SSW,200,7.0,11.0,58,0.00,,---,0.00,0.00,VWS V14.01,2013-10-28 08:22:00,
2013-10-28 03:27:00,47.7,33.7,29.72,SSW,212,10.0,11.0,58,0.00,,---,0.00,0.00,VWS V14.01,2013-10-28 08:27:00,
2013-10-28 03:32:00,47.6,34.4,29.72,West,260,8.0,11.0,60,0.00,,---,0.00,0.00,VWS V14.01,2013-10-28 08:32:00,
2013-10-28 03:37:00,47.3,35.0,29.72,SW,216,8.0,13.0,62,0.00,,---,0.00,0.00,VWS V14.01,2013-10-28 08:37:00,
2013-10-28 03:42:00,47.3,35.4,29.72,WNW,294,7.0,11.0,63,0.00,,---,0.00,0.00,VWS V14.01,2013-10-28 08:42:00,
2013-10-28 03:47:00,47.0,35.5,29.72,SW,217,10.0,12.0,64,0.00,,---,0.00,0.00,VWS V14.01,2013-10-28 08:47:00,
2013-10-28 03:52:00,47.0,35.9,29.72,South,171,11.0,11.0,65,0.00,,---,0.00,0.00,VWS V14.01,2013-10-28 08:52:00,
2013-10-28 03:57:00,46.8,36.4,29.72,South,186,9.0,10.0,67,0.00,,---,0.00,0.00,VWS V14.01,2013-10-28 08:57:00,
2013-10-28 04:02:00,46.8,36.8,29.72,South,182,7.0,11.0,68,0.00,,---,0.00,0.00,VWS V14.01,2013-10-28 09:02:00,
2013-10-28 04:07:00,47.0,37.4,29.72,SSW,208,8.0,10.0,69,0.00,,---,0.00,0.00,VWS V14.01,2013-10-28 09:07:00,
2013-10-28 04:12:00,47.1,37.5,29.72,SSW,198,7.0,8.0,69,0.00,,---,0.00,0.00,VWS V14.01,2013-10-28 09:12:00,
2013-10-28 04:17:00,47.0,37.7,29.73,SSW,200,3.0,11.0,70,0.00,,---,0.00,0.00,VWS V14.01,2013-10-28 09:17:00,
2013-10-28 04:22:00,47.1,38.2,29.73,SSE,161,6.0,10.0,71,0.00,,---,0.00,0.00,VWS V14.01,2013-10-28 09:22:00,
2013-10-28 04:28:00,47.3,38.0,29.73,South,184,6.0,8.0,70,0.00,,---,0.00,0.00,VWS V14.01,2013-10-28 09:28:00,
2013-10-28 04:33:00,47.1,38.2,29.73,North,0,7.0,8.0,71,0.00,,---,0.00,0.00,VWS V14.01,2013-10-28 09:33:00,
2013-10-28 04:38:00,47.1,38.5,29.73,SW,230,7.0,7.0,72,0.00,,---,0.00,0.00,VWS V14.01,2013-10-28 09:38:00,
2013-10-28 04:43:00,47.1,38.5,29.73,SW,224,5.0,8.0,72,0.00,,---,0.00,0.00,VWS V14.01,2013-10-28 09:43:00,
2013-10-28 04:48:00,47.0,38.8,29.73,North,353,7.0,10.0,73,0.00,,---,0.00,0.00,VWS V14.01,2013-10-28 09:48:00,
2013-10-28 04:53:00,47.1,39.2,29.73,North,356,6.0,8.0,74,0.00,,---,0.00,0.00,VWS V14.01,2013-10-28 09:53:00,
2013-10-28 04:58:00,47.0,39.2,29.73,WNW,282,8.0,8.0,74,0.00,,---,0.00,0.00,VWS V14.01,2013-10-28 09:58:00,
2013-10-28 05:03:00,46.8,39.0,29.73,WNW,302,6.0,9.0,74,0.00,,---,0.00,0.00,VWS V14.01,2013-10-28 10:03:00,
2013-10-28 05:08:00,46.8,39.3,29.73,WNW,298,6.0,9.0,75,0.00,,---,0.00,0.00,VWS V14.01,2013-10-28 10:08:00,
2013-10-28 05:13:00,47.0,40.2,29.73,WSW,237,6.0,10.0,77,0.00,,---,0.00,0.00,VWS V14.01,2013-10-28 10:13:00,
2013-10-28 05:18:00,47.3,40.5,29.73,North,0,7.0,10.0,77,0.00,,---,0.00,0.00,VWS V14.01,2013-10-28 10:18:00,
2013-10-28 05:23:00,47.4,40.9,29.73,NNW,329,8.0,10.0,78,0.00,,---,0.00,0.00,VWS V14.01,2013-10-28 10:23:00,
2013-10-28 05:28:00,47.6,41.1,29.73,North,359,6.0,10.0,78,0.00,,---,0.00,0.00,VWS V14.01,2013-10-28 10:28:00,
2013-10-28 05:33:00,47.7,41.5,29.73,WSW,251,8.0,9.0,79,0.00,,---,0.00,0.00,VWS V14.01,2013-10-28 10:33:00,
2013-10-28 05:38:00,47.9,42.0,29.73,NW,316,8.0,10.0,80,0.00,,---,0.00,0.00,VWS V14.01,2013-10-28 10:38:00,
2013-10-28 05:43:00,48.0,42.5,29.73,NNW,328,7.0,8.0,81,0.00,,---,0.00,0.00,VWS V14.01,2013-10-28 10:43:00,
2013-10-28 05:48:00,48.2,42.7,29.74,North,352,5.0,10.0,81,0.00,,---,0.00,0.00,VWS V14.01,2013-10-28 10:48:00,
2013-10-28 05:54:00,48.3,43.1,29.74,North,356,6.0,7.0,82,0.00,,---,0.00,0.00,VWS V14.01,2013-10-28 10:54:00,
2013-10-28 05:59:00,48.2,43.0,29.74,North,0,7.0,8.0,82,0.00,,---,0.00,0.00,VWS V14.01,2013-10-28 10:59:00,
2013-10-28 06:04:00,48.0,42.8,29.74,North,0,3.0,8.0,82,0.00,,---,0.00,0.00,VWS V14.01,2013-10-28 11:04:00,
2013-10-28 06:09:00,47.9,42.7,29.74,NNW,337,3.0,8.0,82,0.00,,---,0.00,0.00,VWS V14.01,2013-10-28 11:09:00,
2013-10-28 06:14:00,47.9,43.0,29.74,North,0,4.0,7.0,83,0.00,,---,0.00,0.00,VWS V14.01,2013-10-28 11:14:00,
2013-10-28 06:19:00,47.6,42.7,29.76,NNW,344,6.0,7.0,83,0.00,,---,0.00,0.00,VWS V14.01,2013-10-28 11:19:00,
2013-10-28 06:24:00,46.2,41.0,29.76,SSW,205,1.0,6.0,82,0.00,,---,0.00,0.00,VWS V14.01,2013-10-28 11:24:00,
2013-10-28 06:29:00,45.1,39.9,29.76,SE,134,2.0,4.0,82,0.00,,---,0.00,0.00,VWS V14.01,2013-10-28 11:29:00,
2013-10-28 06:34:00,44.3,39.5,29.77,ESE,114,2.0,4.0,83,0.00,,---,0.00,0.00,VWS V14.01,2013-10-28 11:34:00,
2013-10-28 06:39:00,44.1,39.3,29.77,ESE,123,5.0,6.0,83,0.00,,---,0.00,0.00,VWS V14.01,2013-10-28 11:39:00,
2013-10-28 06:44:00,43.9,39.4,29.77,SSW,196,6.0,7.0,84,0.00,,---,0.00,0.00,VWS V14.01,2013-10-28 11:44:00,
2013-10-28 06:49:00,43.8,39.3,29.78,SE,133,4.0,7.0,84,0.00,,---,0.00,0.00,VWS V14.01,2013-10-28 11:49:00,
2013-10-28 06:54:00,43.5,39.0,29.78,ESE,117,3.0,5.0,84,0.00,,---,0.00,0.00,VWS V14.01,2013-10-28 11:54:00,
2013-10-28 06:59:00,43.2,38.7,29.79,SE,128,1.0,3.0,84,0.00,,---,0.00,0.00,VWS V14.01,2013-10-28 11:59:00,
2013-10-28 07:05:00,42.9,38.7,29.79,SE,130,0.0,1.0,85,0.00,,---,0.00,0.00,VWS V14.01,2013-10-28 12:05:00,
2013-10-28 07:10:00,42.9,38.7,29.79,SE,124,3.0,3.0,85,0.00,,---,0.00,0.00,VWS V14.01,2013-10-28 12:10:00,
2013-10-28 07:15:00,43.1,38.9,29.80,SE,126,2.0,3.0,85,0.00,,---,0.00,0.00,VWS V14.01,2013-10-28 12:15:00,
2013-10-28 07:20:00,43.2,39.3,29.80,SE,130,2.0,3.0,86,0.00,,---,0.00,0.00,VWS V14.01,2013-10-28 12:20:00,
2013-10-28 07:25:00,43.3,39.4,29.80,SE,128,2.0,2.0,86,0.00,,---,0.00,0.00,VWS V14.01,2013-10-28 12:25:00,
2013-10-28 07:30:00,43.1,39.2,29.81,ESE,123,2.0,3.0,86,0.00,,---,0.00,0.00,VWS V14.01,2013-10-28 12:30:00,
2013-10-28 07:35:00,42.6,38.7,29.81,ESE,121,6.0,6.0,86,0.00,,---,0.00,0.00,VWS V14.01,2013-10-28 12:35:00,
2013-10-28 07:40:00,42.8,39.2,29.81,ESE,119,5.0,7.0,87,0.00,,---,0.00,0.00,VWS V14.01,2013-10-28 12:40:00,
2013-10-28 07:45:00,42.8,39.2,29.81,NW,312,5.0,6.0,87,0.00,,---,0.00,0.00,VWS V14.01,2013-10-28 12:45:00,
2013-10-28 07:50:00,42.6,39.0,29.81,ESE,117,6.0,6.0,87,0.00,,---,0.00,0.00,VWS V14.01,2013-10-28 12:50:00,
2013-10-28 07:55:00,42.6,39.3,29.81,SSE,155,7.0,7.0,88,0.00,,---,0.00,0.00,VWS V14.01,2013-10-28 12:55:00,
2013-10-28 08:00:00,43.3,40.3,29.82,SE,130,3.0,6.0,89,0.00,,---,0.00,5.00,VWS V14.01,2013-10-28 13:00:00,
2013-10-28 08:05:00,43.8,40.8,29.82,WNW,295,2.0,4.0,89,0.00,,---,0.00,5.00,VWS V14.01,2013-10-28 13:05:00,
2013-10-28 08:10:00,43.9,40.9,29.82,SE,130,2.0,4.0,89,0.00,,---,0.00,7.00,VWS V14.01,2013-10-28 13:10:00,
2013-10-28 08:16:00,44.1,41.1,29.82,SE,124,5.0,6.0,89,0.00,,---,0.00,9.00,VWS V14.01,2013-10-28 13:16:00,
2013-10-28 08:21:00,44.3,41.3,29.82,SSW,208,4.0,7.0,89,0.00,,---,0.00,21.00,VWS V14.01,2013-10-28 13:21:00,
2013-10-28 08:26:00,44.6,41.6,29.82,SW,233,3.0,6.0,89,0.00,,---,0.00,18.00,VWS V14.01,2013-10-28 13:26:00,
2013-10-28 08:31:00,44.9,42.2,29.82,SE,130,3.0,6.0,90,0.00,,---,0.00,19.00,VWS V14.01,2013-10-28 13:31:00,
2013-10-28 08:36:00,45.1,42.3,29.82,South,176,3.0,6.0,90,0.00,,---,0.00,25.00,VWS V14.01,2013-10-28 13:36:00,
2013-10-28 08:41:00,45.4,42.9,29.82,SE,130,2.0,5.0,91,0.00,,---,0.00,25.00,VWS V14.01,2013-10-28 13:41:00,
2013-10-28 08:46:00,45.5,43.0,29.83,SE,130,3.0,5.0,91,0.00,,---,0.00,26.00,VWS V14.01,2013-10-28 13:46:00,
2013-10-28 08:51:00,45.8,43.3,29.83,ESE,123,5.0,5.0,91,0.00,,---,0.00,44.00,VWS V14.01,2013-10-28 13:51:00,
2013-10-28 08:56:00,46.1,43.6,29.83,ESE,123,6.0,6.0,91,0.00,,---,0.00,46.00,VWS V14.01,2013-10-28 13:56:00,
2013-10-28 09:01:00,46.2,44.0,29.83,SE,143,3.0,3.0,92,0.00,,---,0.00,51.00,VWS V14.01,2013-10-28 14:01:00,
2013-10-28 09:06:00,46.5,44.3,29.83,SW,223,5.0,7.0,92,0.00,,---,0.00,35.00,VWS V14.01,2013-10-28 14:06:00,
2013-10-28 09:11:00,47.3,45.1,29.83,ESE,119,5.0,7.0,92,0.00,,---,0.00,32.00,VWS V14.01,2013-10-28 14:11:00,
2013-10-28 09:16:00,47.9,45.7,29.83,SE,130,1.0,5.0,92,0.00,,---,0.00,51.00,VWS V14.01,2013-10-28 14:16:00,
2013-10-28 09:21:00,47.9,45.7,29.83,ESE,113,3.0,3.0,92,0.00,,---,0.00,49.00,VWS V14.01,2013-10-28 14:21:00,
2013-10-28 09:26:00,49.2,47.5,29.83,SW,236,3.0,7.0,94,0.00,,---,0.00,33.00,VWS V14.01,2013-10-28 14:26:00,
2013-10-28 09:31:00,51.9,50.5,29.84,NNW,339,5.0,12.0,95,0.00,,---,0.00,58.00,VWS V14.01,2013-10-28 14:31:00,
2013-10-28 09:36:00,52.9,51.2,29.84,SW,227,7.0,13.0,94,0.00,,---,0.00,70.00,VWS V14.01,2013-10-28 14:36:00,
2013-10-28 09:41:00,53.3,51.6,29.84,NW,309,13.0,13.0,94,0.00,,---,0.00,109.00,VWS V14.01,2013-10-28 14:41:00,
2013-10-28 09:47:00,53.6,51.9,29.84,WSW,239,8.0,14.0,94,0.00,,---,0.00,107.00,VWS V14.01,2013-10-28 14:47:00,
2013-10-28 09:52:00,53.9,52.2,29.84,SSW,203,14.0,14.0,94,0.00,,---,0.00,55.00,VWS V14.01,2013-10-28 14:52:00,
2013-10-28 09:57:00,54.1,52.4,29.84,NW,326,6.0,9.0,94,0.00,,---,0.00,91.00,VWS V14.01,2013-10-28 14:57:00,
2013-10-28 10:02:00,54.4,52.7,29.84,SW,217,9.0,17.0,94,0.00,,---,0.00,99.00,VWS V14.01,2013-10-28 15:02:00,
2013-10-28 10:07:00,54.5,52.8,29.84,SSE,161,7.0,14.0,94,0.00,,---,0.00,86.00,VWS V14.01,2013-10-28 15:07:00,
2013-10-28 10:12:00,54.7,52.7,29.84,South,179,7.0,13.0,93,0.00,,---,0.00,106.00,VWS V14.01,2013-10-28 15:12:00,
2013-10-28 10:17:00,55.0,53.0,29.85,South,188,12.0,13.0,93,0.00,,---,0.00,137.00,VWS V14.01,2013-10-28 15:17:00,
2013-10-28 10:22:00,55.3,53.3,29.85,SW,220,12.0,18.0,93,0.00,,---,0.00,162.00,VWS V14.01,2013-10-28 15:22:00,
2013-10-28 10:27:00,55.6,53.3,29.85,South,175,8.0,16.0,92,0.00,,---,0.00,164.00,VWS V14.01,2013-10-28 15:27:00,
2013-10-28 10:32:00,55.9,53.6,29.85,WNW,291,10.0,11.0,92,0.00,,---,0.00,169.00,VWS V14.01,2013-10-28 15:32:00,
2013-10-28 10:37:00,56.0,53.4,29.85,SW,232,7.0,14.0,91,0.00,,---,0.00,201.00,VWS V14.01,2013-10-28 15:37:00,
2013-10-28 10:42:00,56.3,53.4,29.85,SW,217,11.0,13.0,90,0.00,,---,0.00,169.00,VWS V14.01,2013-10-28 15:42:00,
2013-10-28 10:47:00,56.6,53.4,29.85,South,171,8.0,17.0,89,0.00,,---,0.00,197.00,VWS V14.01,2013-10-28 15:47:00,
2013-10-28 10:52:00,56.7,53.5,29.85,South,188,10.0,18.0,89,0.00,,---,0.00,199.00,VWS V14.01,2013-10-28 15:52:00,
2013-10-28 10:58:00,57.0,53.5,29.85,NNW,347,17.0,17.0,88,0.00,,---,0.00,178.00,VWS V14.01,2013-10-28 15:58:00,
2013-10-28 11:03:00,57.2,53.4,29.85,SSW,198,13.0,19.0,87,0.00,,---,0.00,185.00,VWS V14.01,2013-10-28 16:03:00,
2013-10-28 11:08:00,57.3,53.2,29.85,WNW,294,9.0,12.0,86,0.00,,---,0.00,271.00,VWS V14.01,2013-10-28 16:08:00,
2013-10-28 11:13:00,57.8,53.3,29.85,South,175,6.0,14.0,85,0.00,,---,0.00,253.00,VWS V14.01,2013-10-28 16:13:00,
2013-10-28 11:18:00,58.0,53.2,29.85,South,179,14.0,14.0,84,0.00,,---,0.00,206.00,VWS V14.01,2013-10-28 16:18:00,
2013-10-28 11:23:00,58.1,53.0,29.85,West,280,5.0,19.0,83,0.00,,---,0.00,220.00,VWS V14.01,2013-10-28 16:23:00,
2013-10-28 11:28:00,58.4,52.9,29.85,WSW,237,12.0,13.0,82,0.00,,---,0.00,252.00,VWS V14.01,2013-10-28 16:28:00,
2013-10-28 11:33:00,58.4,52.9,29.85,NNW,343,11.0,14.0,82,0.00,,---,0.00,234.00,VWS V14.01,2013-10-28 16:33:00,
2013-10-28 11:38:00,58.7,53.2,29.85,West,277,10.0,11.0,82,0.00,,---,0.00,269.00,VWS V14.01,2013-10-28 16:38:00,
2013-10-28 11:43:00,58.9,53.4,29.85,North,349,8.0,17.0,82,0.00,,---,0.00,297.00,VWS V14.01,2013-10-28 16:43:00,
2013-10-28 11:48:00,59.2,53.0,29.85,North,359,8.0,18.0,80,0.00,,---,0.00,297.00,VWS V14.01,2013-10-28 16:48:00,
2013-10-28 11:54:00,59.3,53.1,29.85,North,0,8.0,18.0,80,0.00,,---,0.00,241.00,VWS V14.01,2013-10-28 16:54:00,
2013-10-28 11:59:00,59.5,53.0,29.85,North,0,10.0,16.0,79,0.00,,---,0.00,243.00,VWS V14.01,2013-10-28 16:59:00,
2013-10-28 12:04:00,59.6,53.1,29.84,North,353,6.0,19.0,79,0.00,,---,0.00,318.00,VWS V14.01,2013-10-28 17:04:00,
2013-10-28 12:09:00,59.9,53.0,29.84,North,352,5.0,16.0,78,0.00,,---,0.00,338.00,VWS V14.01,2013-10-28 17:09:00,
2013-10-28 12:14:00,60.4,53.2,29.84,NNW,337,11.0,17.0,77,0.00,,---,0.00,345.00,VWS V14.01,2013-10-28 17:14:00,
2013-10-28 12:19:00,60.7,53.1,29.84,WSW,244,14.0,18.0,76,0.00,,---,0.00,329.00,VWS V14.01,2013-10-28 17:19:00,
2013-10-28 12:24:00,61.2,53.2,29.84,NW,308,16.0,18.0,75,0.00,,---,0.00,287.00,VWS V14.01,2013-10-28 17:24:00,
2013-10-28 12:29:00,61.5,53.5,29.84,NNW,340,13.0,16.0,75,0.00,,---,0.00,301.00,VWS V14.01,2013-10-28 17:29:00,
2013-10-28 12:34:00,61.5,53.2,29.84,SW,226,13.0,19.0,74,0.00,,---,0.00,318.00,VWS V14.01,2013-10-28 17:34:00,
2013-10-28 12:39:00,60.9,52.9,29.84,SSW,193,11.0,22.0,75,0.00,,---,0.00,269.00,VWS V14.01,2013-10-28 17:39:00,
2013-10-28 12:44:00,60.7,53.1,29.84,North,349,15.0,20.0,76,0.00,,---,0.00,347.00,VWS V14.01,2013-10-28 17:44:00,
2013-10-28 12:49:00,60.7,53.1,29.85,SSW,196,14.0,20.0,76,0.00,,---,0.00,327.00,VWS V14.01,2013-10-28 17:49:00,
2013-10-28 12:54:00,61.0,53.0,29.85,NNW,346,10.0,19.0,75,0.00,,---,0.00,304.00,VWS V14.01,2013-10-28 17:54:00,
2013-10-28 12:59:00,61.3,53.0,29.84,NW,320,10.0,19.0,74,0.00,,---,0.00,299.00,VWS V14.01,2013-10-28 17:59:00,
2013-10-28 13:04:00,61.6,53.2,29.84,NNW,347,10.0,18.0,74,0.00,,---,0.00,297.00,VWS V14.01,2013-10-28 18:04:00,
2013-10-28 13:09:00,61.8,53.4,29.84,SSW,198,16.0,17.0,74,0.00,,---,0.00,236.00,VWS V14.01,2013-10-28 18:09:00,
2013-10-28 13:14:00,61.3,53.0,29.84,West,278,6.0,20.0,74,0.00,,---,0.00,132.00,VWS V14.01,2013-10-28 18:14:00,
2013-10-28 13:20:00,61.3,53.3,29.84,NNW,344,17.0,17.0,75,0.00,,---,0.00,238.00,VWS V14.01,2013-10-28 18:20:00,
2013-10-28 13:25:00,61.0,53.4,29.84,North,356,14.0,18.0,76,0.00,,---,0.00,243.00,VWS V14.01,2013-10-28 18:25:00,
2013-10-28 13:30:00,60.9,52.9,29.84,West,270,14.0,19.0,75,0.00,,---,0.00,267.00,VWS V14.01,2013-10-28 18:30:00,
2013-10-28 13:35:00,60.7,52.7,29.84,NW,323,10.0,17.0,75,0.00,,---,0.00,213.00,VWS V14.01,2013-10-28 18:35:00,
2013-10-28 13:40:00,60.4,52.8,29.84,North,359,10.0,17.0,76,0.00,,---,0.00,157.00,VWS V14.01,2013-10-28 18:40:00,
2013-10-28 13:45:00,60.2,53.0,29.84,North,0,13.0,19.0,77,0.00,,---,0.00,197.00,VWS V14.01,2013-10-28 18:45:00,
2013-10-28 13:50:00,60.2,53.0,29.84,North,0,9.0,18.0,77,0.00,,---,0.00,222.00,VWS V14.01,2013-10-28 18:50:00,
2013-10-28 13:55:00,60.4,53.2,29.84,NNW,347,10.0,14.0,77,0.00,,---,0.00,199.00,VWS V14.01,2013-10-28 18:55:00,
2013-10-28 14:00:00,60.4,53.2,29.84,North,0,10.0,17.0,77,0.00,,---,0.00,190.00,VWS V14.01,2013-10-28 19:00:00,
2013-10-28 14:05:00,60.4,53.2,29.84,North,0,7.0,13.0,77,0.00,,---,0.00,172.00,VWS V14.01,2013-10-28 19:05:00,
2013-10-28 14:10:00,60.2,53.0,29.84,North,0,8.0,18.0,77,0.00,,---,0.00,187.00,VWS V14.01,2013-10-28 19:10:00,
2013-10-28 14:15:00,60.4,53.2,29.83,North,352,8.0,20.0,77,0.00,,---,0.00,179.00,VWS V14.01,2013-10-28 19:15:00,
2013-10-28 14:20:00,60.4,53.2,29.83,North,350,6.0,7.0,77,0.00,,---,0.00,185.00,VWS V14.01,2013-10-28 19:20:00,
2013-10-28 14:25:00,60.5,53.3,29.83,NNW,347,13.0,13.0,77,0.00,,---,0.00,192.00,VWS V14.01,2013-10-28 19:25:00,
2013-10-28 14:30:00,60.5,53.3,29.82,NNW,336,10.0,12.0,77,0.00,,---,0.00,259.00,VWS V14.01,2013-10-28 19:30:00,
2013-10-28 14:35:00,61.0,53.4,29.82,NW,325,8.0,13.0,76,0.00,,---,0.00,317.00,VWS V14.01,2013-10-28 19:35:00,
2013-10-28 14:40:00,61.8,53.4,29.82,North,353,21.0,22.0,74,0.00,,---,0.00,454.00,VWS V14.01,2013-10-28 19:40:00,
2013-10-28 14:45:00,61.6,52.9,29.81,North,0,13.0,20.0,73,0.00,,---,0.00,375.00,VWS V14.01,2013-10-28 19:45:00,
2013-10-28 14:51:00,61.5,53.2,29.81,North,0,8.0,19.0,74,0.00,,---,0.00,165.00,VWS V14.01,2013-10-28 19:51:00,
2013-10-28 14:56:00,61.8,53.4,29.81,WNW,299,16.0,16.0,74,0.00,,---,0.00,282.00,VWS V14.01,2013-10-28 19:56:00,
2013-10-28 15:01:00,61.6,53.2,29.80,NNW,346,14.0,16.0,74,0.00,,---,0.00,253.00,VWS V14.01,2013-10-28 20:01:00,
2013-10-28 15:06:00,61.8,53.4,29.80,North,0,17.0,18.0,74,0.00,,---,0.00,473.00,VWS V14.01,2013-10-28 20:06:00,
2013-10-28 15:11:00,62.1,53.3,29.80,NW,322,18.0,19.0,73,0.00,,---,0.00,368.00,VWS V14.01,2013-10-28 20:11:00,
2013-10-28 15:16:00,62.7,53.5,29.80,NNW,342,14.0,14.0,72,0.00,,---,0.00,593.00,VWS V14.01,2013-10-28 20:16:00,
2013-10-28 15:21:00,62.7,53.2,29.80,NNW,347,17.0,18.0,71,0.00,,---,0.00,141.00,VWS V14.01,2013-10-28 20:21:00,
2013-10-28 15:26:00,62.4,53.3,29.80,North,0,13.0,18.0,72,0.00,,---,0.00,278.00,VWS V14.01,2013-10-28 20:26:00,
2013-10-28 15:31:00,62.6,53.5,29.80,North,352,17.0,18.0,72,0.00,,---,0.00,181.00,VWS V14.01,2013-10-28 20:31:00,
2013-10-28 15:36:00,62.4,53.6,29.80,WSW,254,13.0,19.0,73,0.00,,---,0.00,253.00,VWS V14.01,2013-10-28 20:36:00,
2013-10-28 15:41:00,62.4,53.6,29.80,North,0,14.0,19.0,73,0.00,,---,0.00,274.00,VWS V14.01,2013-10-28 20:41:00,
2013-10-28 15:46:00,63.2,54.0,29.79,SSE,152,16.0,21.0,72,0.00,,---,0.00,523.00,VWS V14.01,2013-10-28 20:46:00,
2013-10-28 15:51:00,62.7,53.9,29.79,NW,326,12.0,17.0,73,0.00,,---,0.00,523.00,VWS V14.01,2013-10-28 20:51:00,
2013-10-28 15:56:00,62.3,53.9,29.79,North,352,21.0,21.0,74,0.00,,---,0.00,190.00,VWS V14.01,2013-10-28 20:56:00,
2013-10-28 16:01:00,61.8,53.8,29.79,North,352,14.0,22.0,75,0.00,,---,0.00,174.00,VWS V14.01,2013-10-28 21:01:00,
2013-10-28 16:06:00,61.6,53.6,29.79,North,357,17.0,19.0,75,0.00,,---,0.00,165.00,VWS V14.01,2013-10-28 21:06:00,
2013-10-28 16:11:00,61.5,53.5,29.79,North,0,16.0,24.0,75,0.00,,---,0.00,153.00,VWS V14.01,2013-10-28 21:11:00,
2013-10-28 16:17:00,61.6,53.6,29.79,NW,319,16.0,18.0,75,0.00,,---,0.00,144.00,VWS V14.01,2013-10-28 21:17:00,
2013-10-28 16:22:00,61.5,53.5,29.79,West,260,11.0,18.0,75,0.00,,---,0.00,143.00,VWS V14.01,2013-10-28 21:22:00,
2013-10-28 16:27:00,61.2,53.6,29.79,North,0,17.0,20.0,76,0.00,,---,0.00,95.00,VWS V14.01,2013-10-28 21:27:00,
2013-10-28 16:32:00,60.9,53.7,29.80,North,0,12.0,17.0,77,0.00,,---,0.00,84.00,VWS V14.01,2013-10-28 21:32:00,
2013-10-28 16:37:00,60.7,53.5,29.80,NNW,344,10.0,17.0,77,0.00,,---,0.00,48.00,VWS V14.01,2013-10-28 21:37:00,
2013-10-28 16:42:00,60.5,53.6,29.80,NNW,346,14.0,18.0,78,0.00,,---,0.00,58.00,VWS V14.01,2013-10-28 21:42:00,
2013-10-28 16:47:00,60.4,53.5,29.80,North,352,13.0,16.0,78,0.00,,---,0.00,63.00,VWS V14.01,2013-10-28 21:47:00,
2013-10-28 16:52:00,60.2,53.7,29.80,North,352,14.0,20.0,79,0.00,,---,0.00,63.00,VWS V14.01,2013-10-28 21:52:00,
2013-10-28 16:57:00,60.2,53.3,29.80,North,359,10.0,14.0,78,0.00,,---,0.00,77.00,VWS V14.01,2013-10-28 21:57:00,
2013-10-28 17:02:00,60.2,53.3,29.80,NNW,343,8.0,17.0,78,0.00,,---,0.00,63.00,VWS V14.01,2013-10-28 22:02:00,
2013-10-28 17:07:00,60.4,53.5,29.80,North,354,10.0,14.0,78,0.00,,---,0.00,83.00,VWS V14.01,2013-10-28 22:07:00,
2013-10-28 17:12:00,60.5,53.6,29.80,North,0,17.0,17.0,78,0.00,,---,0.00,97.00,VWS V14.01,2013-10-28 22:12:00,
2013-10-28 17:17:00,60.5,53.6,29.81,North,353,10.0,17.0,78,0.00,,---,0.00,63.00,VWS V14.01,2013-10-28 22:17:00,
2013-10-28 17:22:00,60.5,53.6,29.81,North,0,11.0,12.0,78,0.00,,---,0.00,33.00,VWS V14.01,2013-10-28 22:22:00,
2013-10-28 17:27:00,60.4,53.9,29.81,North,357,14.0,14.0,79,0.00,,---,0.00,26.00,VWS V14.01,2013-10-28 22:27:00,
2013-10-28 17:32:00,60.4,53.9,29.81,North,0,7.0,14.0,79,0.00,,---,0.00,21.00,VWS V14.01,2013-10-28 22:32:00,
2013-10-28 17:38:00,60.4,53.9,29.81,North,0,9.0,16.0,79,0.00,,---,0.00,14.00,VWS V14.01,2013-10-28 22:38:00,
2013-10-28 17:43:00,60.2,53.7,29.81,North,0,12.0,16.0,79,0.00,,---,0.00,19.00,VWS V14.01,2013-10-28 22:43:00,
2013-10-28 17:48:00,60.1,53.6,29.81,North,0,13.0,16.0,79,0.00,,---,0.00,18.00,VWS V14.01,2013-10-28 22:48:00,
2013-10-28 17:53:00,60.1,53.6,29.81,North,349,13.0,16.0,79,0.00,,---,0.00,16.00,VWS V14.01,2013-10-28 22:53:00,
2013-10-28 17:58:00,59.9,53.7,29.81,West,267,8.0,16.0,80,0.00,,---,0.00,18.00,VWS V14.01,2013-10-28 22:58:00,
2013-10-28 18:03:00,59.9,53.7,29.80,North,356,12.0,16.0,80,0.00,,---,0.00,18.00,VWS V14.01,2013-10-28 23:03:00,
2013-10-28 18:08:00,59.8,53.6,29.80,SSE,160,9.0,13.0,80,0.00,,---,0.00,23.00,VWS V14.01,2013-10-28 23:08:00,
2013-10-28 18:13:00,59.8,53.6,29.80,NNW,329,9.0,17.0,80,0.00,,---,0.00,32.00,VWS V14.01,2013-10-28 23:13:00,
2013-10-28 18:18:00,59.6,53.4,29.81,South,179,13.0,17.0,80,0.00,,---,0.00,7.00,VWS V14.01,2013-10-28 23:18:00,
2013-10-28 18:23:00,59.3,53.1,29.81,WNW,288,8.0,16.0,80,0.00,,---,0.00,5.00,VWS V14.01,2013-10-28 23:23:00,
2013-10-28 18:28:00,59.2,53.4,29.81,North,353,13.0,16.0,81,0.00,,---,0.00,0.00,VWS V14.01,2013-10-28 23:28:00,
2013-10-28 18:33:00,59.0,53.2,29.81,SSW,212,11.0,14.0,81,0.00,,---,0.00,0.00,VWS V14.01,2013-10-28 23:33:00,
2013-10-28 18:38:00,58.9,53.4,29.81,West,275,14.0,17.0,82,0.00,,---,0.00,0.00,VWS V14.01,2013-10-28 23:38:00,
2013-10-28 18:43:00,58.9,53.4,29.81,WSW,250,14.0,17.0,82,0.00,,---,0.00,0.00,VWS V14.01,2013-10-28 23:43:00,
2013-10-28 18:48:00,58.7,53.2,29.81,North,357,16.0,18.0,82,0.00,,---,0.00,0.00,VWS V14.01,2013-10-28 23:48:00,
2013-10-28 18:53:00,58.7,53.2,29.81,NNW,347,13.0,18.0,82,0.00,,---,0.00,0.00,VWS V14.01,2013-10-28 23:53:00,
2013-10-28 18:58:00,58.6,53.1,29.81,North,0,16.0,18.0,82,0.00,,---,0.00,0.00,VWS V14.01,2013-10-28 23:58:00,
2013-10-28 19:03:00,58.6,53.1,29.82,SE,133,13.0,17.0,82,0.00,,---,0.00,0.00,VWS V14.01,2013-10-29 00:03:00,
2013-10-28 19:09:00,58.4,52.9,29.82,North,356,13.0,15.0,82,0.00,,---,0.00,0.00,VWS V14.01,2013-10-29 00:09:00,
2013-10-28 19:14:00,58.4,53.3,29.82,North,349,9.0,16.0,83,0.00,,---,0.00,0.00,VWS V14.01,2013-10-29 00:14:00,
2013-10-28 19:19:00,58.4,53.3,29.83,NNW,330,12.0,18.0,83,0.00,,---,0.00,0.00,VWS V14.01,2013-10-29 00:19:00,
2013-10-28 19:24:00,58.3,53.2,29.83,NW,308,17.0,18.0,83,0.00,,---,0.00,0.00,VWS V14.01,2013-10-29 00:24:00,
2013-10-28 19:29:00,58.3,53.2,29.83,North,0,16.0,17.0,83,0.00,,---,0.00,0.00,VWS V14.01,2013-10-29 00:29:00,
2013-10-28 19:34:00,58.3,53.2,29.83,NW,315,19.0,20.0,83,0.00,,---,0.00,0.00,VWS V14.01,2013-10-29 00:34:00,
2013-10-28 19:39:00,58.3,52.8,29.83,North,356,13.0,20.0,82,0.00,,---,0.00,0.00,VWS V14.01,2013-10-29 00:39:00,
2013-10-28 19:44:00,58.1,53.0,29.83,NNW,330,18.0,20.0,83,0.00,,---,0.00,0.00,VWS V14.01,2013-10-29 00:44:00,
2013-10-28 19:49:00,58.1,53.0,29.84,North,0,13.0,19.0,83,0.00,,---,0.00,0.00,VWS V14.01,2013-10-29 00:49:00,
2013-10-28 19:54:00,58.1,53.0,29.84,NNW,343,16.0,21.0,83,0.00,,---,0.00,0.00,VWS V14.01,2013-10-29 00:54:00,
2013-10-28 19:59:00,58.0,52.9,29.84,North,356,14.0,20.0,83,0.00,,---,0.00,0.00,VWS V14.01,2013-10-29 00:59:00,
2013-10-28 20:04:00,58.0,52.9,29.84,North,352,19.0,21.0,83,0.00,,---,0.00,0.00,VWS V14.01,2013-10-29 01:04:00,
2013-10-28 20:09:00,58.0,52.9,29.84,NNW,346,13.0,18.0,83,0.00,,---,0.00,0.00,VWS V14.01,2013-10-29 01:09:00,
2013-10-28 20:14:00,57.8,52.7,29.83,NNW,337,17.0,20.0,83,0.00,,---,0.00,0.00,VWS V14.01,2013-10-29 01:14:00,
2013-10-28 20:19:00,57.8,52.7,29.83,NNW,343,17.0,17.0,83,0.00,,---,0.00,0.00,VWS V14.01,2013-10-29 01:19:00,
2013-10-28 20:24:00,57.8,52.7,29.83,North,356,14.0,19.0,83,0.00,,---,0.00,0.00,VWS V14.01,2013-10-29 01:24:00,
2013-10-28 20:29:00,57.8,52.7,29.84,NW,323,13.0,16.0,83,0.00,,---,0.00,0.00,VWS V14.01,2013-10-29 01:29:00,
2013-10-28 20:35:00,57.8,52.7,29.84,North,354,16.0,17.0,83,0.00,,---,0.00,0.00,VWS V14.01,2013-10-29 01:35:00,
2013-10-28 20:40:00,57.8,52.7,29.84,North,0,17.0,17.0,83,0.00,,---,0.00,0.00,VWS V14.01,2013-10-29 01:40:00,
2013-10-28 20:45:00,57.8,53.0,29.83,ESE,112,8.0,17.0,84,0.00,,---,0.00,0.00,VWS V14.01,2013-10-29 01:45:00,
2013-10-28 20:50:00,57.6,52.8,29.83,NNW,347,10.0,17.0,84,0.00,,---,0.00,0.00,VWS V14.01,2013-10-29 01:50:00,
2013-10-28 20:55:00,57.6,52.8,29.83,North,353,9.0,15.0,84,0.00,,---,0.00,0.00,VWS V14.01,2013-10-29 01:55:00,
2013-10-28 21:00:00,57.8,53.0,29.84,SE,127,10.0,15.0,84,0.00,,---,0.00,0.00,VWS V14.01,2013-10-29 02:00:00,
2013-10-28 21:05:00,57.8,53.0,29.84,North,0,14.0,16.0,84,0.00,,---,0.00,0.00,VWS V14.01,2013-10-29 02:05:00,
2013-10-28 21:10:00,58.0,52.9,29.84,North,354,11.0,17.0,83,0.00,,---,0.00,0.00,VWS V14.01,2013-10-29 02:10:00,
2013-10-28 21:15:00,58.0,52.9,29.83,SW,223,13.0,16.0,83,0.00,,---,0.00,0.00,VWS V14.01,2013-10-29 02:15:00,
2013-10-28 21:20:00,58.0,52.9,29.83,North,0,17.0,18.0,83,0.00,,---,0.00,0.00,VWS V14.01,2013-10-29 02:20:00,
2013-10-28 21:25:00,58.0,52.9,29.83,South,175,14.0,19.0,83,0.00,,---,0.00,0.00,VWS V14.01,2013-10-29 02:25:00,
2013-10-28 21:30:00,58.0,52.9,29.83,North,352,18.0,18.0,83,0.00,,---,0.00,0.00,VWS V14.01,2013-10-29 02:30:00,
2013-10-28 21:35:00,58.1,53.0,29.83,North,0,14.0,18.0,83,0.00,,---,0.00,0.00,VWS V14.01,2013-10-29 02:35:00,
2013-10-28 21:40:00,58.1,53.0,29.83,North,0,15.0,19.0,83,0.00,,---,0.00,0.00,VWS V14.01,2013-10-29 02:40:00,
2013-10-28 21:45:00,58.1,53.0,29.83,North,0,10.0,17.0,83,0.00,,---,0.00,0.00,VWS V14.01,2013-10-29 02:45:00,
2013-10-28 21:50:00,58.1,53.0,29.83,NNW,347,16.0,16.0,83,0.00,,---,0.00,0.00,VWS V14.01,2013-10-29 02:50:00,
2013-10-28 21:55:00,58.1,53.0,29.83,North,0,12.0,12.0,83,0.00,,---,0.00,0.00,VWS V14.01,2013-10-29 02:55:00,
2013-10-28 22:00:00,58.1,53.0,29.82,NNW,333,15.0,16.0,83,0.00,,---,0.00,0.00,VWS V14.01,2013-10-29 03:00:00,
2013-10-28 22:01:00,58.3,52.8,29.80,North,349,18.0,21.0,82,0.00,,---,0.00,0.00,VWS V14.01,2013-10-29 03:01:00,
2013-10-28 22:02:00,58.3,52.8,29.80,North,353,18.0,21.0,82,0.00,,---,0.00,0.00,VWS V14.01,2013-10-29 03:02:00,
2013-10-28 22:03:00,58.3,52.8,29.80,North,0,17.0,21.0,82,0.00,,---,0.00,0.00,VWS V14.01,2013-10-29 03:03:00,
2013-10-28 22:04:00,58.3,52.8,29.80,NNW,347,15.0,21.0,82,0.00,,---,0.00,0.00,VWS V14.01,2013-10-29 03:04:00,
2013-10-28 22:05:00,58.3,53.2,29.82,North,353,13.0,14.0,83,0.00,,---,0.00,0.00,VWS V14.01,2013-10-29 03:05:00,
2013-10-28 22:06:00,58.3,52.8,29.80,North,352,12.0,18.0,82,0.00,,---,0.00,0.00,VWS V14.01,2013-10-29 03:06:00,
2013-10-28 22:07:00,58.3,52.8,29.80,North,0,16.0,18.0,82,0.00,,---,0.00,0.00,VWS V14.01,2013-10-29 03:07:00,
2013-10-28 22:08:00,58.3,52.8,29.80,North,0,16.0,21.0,82,0.00,,---,0.00,0.00,VWS V14.01,2013-10-29 03:08:00,
2013-10-28 22:09:00,58.3,52.5,29.80,North,359,15.0,21.0,81,0.00,,---,0.00,0.00,VWS V14.01,2013-10-29 03:09:00,
2013-10-28 22:10:00,58.3,52.8,29.82,North,0,8.0,10.0,82,0.00,,---,0.00,0.00,VWS V14.01,2013-10-29 03:10:00,
2013-10-28 22:11:00,58.3,52.5,29.80,North,0,8.0,19.0,81,0.00,,---,0.00,0.00,VWS V14.01,2013-10-29 03:11:00,
2013-10-28 22:12:00,58.3,52.5,29.80,WNW,284,19.0,21.0,81,0.00,,---,0.00,0.00,VWS V14.01,2013-10-29 03:12:00,
2013-10-28 22:13:00,58.3,52.5,29.80,North,350,18.0,21.0,81,0.00,,---,0.00,0.00,VWS V14.01,2013-10-29 03:13:00,
2013-10-28 22:14:00,58.3,52.5,29.80,North,0,14.0,21.0,81,0.00,,---,0.00,0.00,VWS V14.01,2013-10-29 03:14:00,
2013-10-28 22:15:00,58.3,52.8,29.82,North,0,8.0,10.0,82,0.00,,---,0.00,0.00,VWS V14.01,2013-10-29 03:15:00,
2013-10-28 22:16:00,58.3,52.5,29.80,North,352,11.0,16.0,81,0.00,,---,0.00,0.00,VWS V14.01,2013-10-29 03:16:00,
2013-10-28 22:17:00,58.3,52.5,29.80,North,0,16.0,19.0,81,0.00,,---,0.00,0.00,VWS V14.01,2013-10-29 03:17:00,
2013-10-28 22:18:00,58.3,52.5,29.80,North,349,18.0,19.0,81,0.00,,---,0.00,0.00,VWS V14.01,2013-10-29 03:18:00,
2013-10-28 22:19:00,58.3,52.5,29.80,NNW,346,13.0,19.0,81,0.00,,---,0.00,0.00,VWS V14.01,2013-10-29 03:19:00,
2013-10-28 22:20:00,58.4,52.6,29.80,NNW,347,16.0,19.0,81,0.00,,---,0.00,0.00,VWS V14.01,2013-10-29 03:20:00,
2013-10-28 22:21:00,58.3,52.8,29.82,NNW,346,12.0,14.0,82,0.00,,---,0.00,0.00,VWS V14.01,2013-10-29 03:21:00,
2013-10-28 22:22:00,58.4,52.6,29.80,North,359,14.0,18.0,81,0.00,,---,0.00,0.00,VWS V14.01,2013-10-29 03:22:00,
2013-10-28 22:23:00,58.4,52.6,29.80,North,0,13.0,18.0,81,0.00,,---,0.00,0.00,VWS V14.01,2013-10-29 03:23:00,
2013-10-28 22:24:00,58.4,52.6,29.80,NNW,347,12.0,18.0,81,0.00,,---,0.00,0.00,VWS V14.01,2013-10-29 03:24:00,
2013-10-28 22:25:00,58.4,52.6,29.80,NNW,344,10.0,12.0,81,0.00,,---,0.00,0.00,VWS V14.01,2013-10-29 03:25:00,
2013-10-28 22:26:00,58.3,52.8,29.82,NNW,343,13.0,13.0,82,0.00,,---,0.00,0.00,VWS V14.01,2013-10-29 03:26:00,
2013-10-28 22:27:00,58.4,52.6,29.80,WNW,291,8.0,17.0,81,0.00,,---,0.00,0.00,VWS V14.01,2013-10-29 03:27:00,
2013-10-28 22:28:00,58.4,52.6,29.80,North,0,11.0,17.0,81,0.00,,---,0.00,0.00,VWS V14.01,2013-10-29 03:28:00,
2013-10-28 22:29:00,58.4,52.6,29.80,North,0,11.0,17.0,81,0.00,,---,0.00,0.00,VWS V14.01,2013-10-29 03:29:00,
2013-10-28 22:31:00,58.3,52.8,29.82,WNW,295,13.0,13.0,82,0.00,,---,0.00,0.00,VWS V14.01,2013-10-29 03:31:00,
2013-10-28 22:33:00,58.4,52.3,29.80,NW,322,16.0,19.0,80,0.00,,---,0.00,0.00,VWS V14.01,2013-10-29 03:33:00,
2013-10-28 22:35:00,58.4,52.3,29.80,NNW,346,7.0,19.0,80,0.00,,---,0.00,0.00,VWS V14.01,2013-10-29 03:35:00,
2013-10-28 22:36:00,58.3,52.8,29.82,NNW,346,15.0,17.0,82,0.00,,---,0.00,0.00,VWS V14.01,2013-10-29 03:36:00,
2013-10-28 22:38:00,58.6,52.5,29.80,North,350,13.0,16.0,80,0.00,,---,0.00,0.00,VWS V14.01,2013-10-29 03:38:00,
2013-10-28 22:39:00,58.6,52.5,29.80,NNW,347,13.0,16.0,80,0.00,,---,0.00,0.00,VWS V14.01,2013-10-29 03:39:00,
2013-10-28 22:40:00,58.6,52.5,29.80,NNW,347,11.0,17.0,80,0.00,,---,0.00,0.00,VWS V14.01,2013-10-29 03:40:00,
2013-10-28 22:41:00,58.3,52.8,29.82,North,0,15.0,19.0,82,0.00,,---,0.00,0.00,VWS V14.01,2013-10-29 03:41:00,
2013-10-28 22:42:00,58.6,52.5,29.80,North,0,11.0,18.0,80,0.00,,---,0.00,0.00,VWS V14.01,2013-10-29 03:42:00,
2013-10-28 22:43:00,58.6,52.5,29.80,North,349,14.0,18.0,80,0.00,,---,0.00,0.00,VWS V14.01,2013-10-29 03:43:00,
2013-10-28 22:44:00,58.6,52.5,29.79,North,0,13.0,18.0,80,0.00,,---,0.00,0.00,VWS V14.01,2013-10-29 03:44:00,
2013-10-28 22:45:00,58.6,52.5,29.79,North,0,12.0,14.0,80,0.00,,---,0.00,0.00,VWS V14.01,2013-10-29 03:45:00,
2013-10-28 22:46:00,58.3,52.8,29.80,North,354,17.0,19.0,82,0.00,,---,0.00,0.00,VWS V14.01,2013-10-29 03:46:00,
2013-10-28 22:48:00,58.6,52.5,29.79,NNW,344,10.0,17.0,80,0.00,,---,0.00,0.00,VWS V14.01,2013-10-29 03:48:00,
2013-10-28 22:50:00,58.7,52.6,29.79,North,0,10.0,11.0,80,0.00,,---,0.00,0.00,VWS V14.01,2013-10-29 03:50:00,
2013-10-28 22:51:00,58.3,52.8,29.80,North,0,17.0,17.0,82,0.00,,---,0.00,0.00,VWS V14.01,2013-10-29 03:51:00,
2013-10-28 22:52:00,58.7,52.6,29.79,North,0,8.0,14.0,80,0.00,,---,0.00,0.00,VWS V14.01,2013-10-29 03:52:00,
2013-10-28 22:56:00,58.1,52.6,29.80,North,0,16.0,20.0,82,0.00,,---,0.00,0.00,VWS V14.01,2013-10-29 03:56:00,
2013-10-28 23:19:00,58.3,52.5,29.80,NNW,344,17.0,19.0,81,0.00,,---,0.00,0.00,VWS V14.01,2013-10-29 04:19:00,
2013-10-28 23:25:00,58.4,52.6,29.80,NNW,347,11.0,18.0,81,0.00,,---,0.00,0.00,VWS V14.01,2013-10-29 04:25:00,
2013-10-28 23:30:00,58.4,52.3,29.80,NNW,333,11.0,17.0,80,0.00,,---,0.00,0.00,VWS V14.01,2013-10-29 04:30:00,
2013-10-28 23:35:00,58.4,52.3,29.80,NNW,335,12.0,14.0,80,0.00,,---,0.00,0.00,VWS V14.01,2013-10-29 04:35:00,
2013-10-28 23:40:00,58.6,52.5,29.80,North,350,14.0,14.0,80,0.00,,---,0.00,0.00,VWS V14.01,2013-10-29 04:40:00,
2013-10-28 23:45:00,58.6,52.5,29.79,North,0,12.0,14.0,80,0.00,,---,0.00,0.00,VWS V14.01,2013-10-29 04:45:00,
2013-10-28 23:50:00,58.7,52.6,29.79,North,349,9.0,11.0,80,0.00,,---,0.00,0.00,VWS V14.01,2013-10-29 04:50:00,
2013-10-28 23:56:00,58.7,52.6,29.79,North,353,10.0,11.0,80,0.00,,---,0.00,0.00,VWS V14.01,2013-10-29 04:56:00,